[[{"header":{"parameterUnit":"m.s-1","parameterCategory":1,"la1":30.2992,"la2":30.254,"lo1":-89.0895,"lo2":-89.0443,"dy":0.0025,"dx":0.0025,"nx":19,"ny":19,"refTime":"2026-04-17T09:00:00:Z","depth":0,"parameterNumber":2,"parameterNumberName":"U-component_of_WINDS"},"data":[0,0,0,5.5675,5.5678,5.5814,5.5814,5.6022,5.6024,0,0,0,0,0,0,0,0,0,0,0,5.5655,5.5657,5.5675,5.5679,5.5814,5.5814,5.6021,5.6024,0,0,0,0,0,0,0,0,0,0,0,5.5654,5.5656,5.5659,5.5679,5.5814,5.5814,5.6021,5.5907,0,0,0,0,0,0,0,0,0,0,5.5769,5.577,5.5656,5.5659,5.568,5.5814,5.5814,5.5901,5.5914,5.5975,0,5.6034,0,5.6032,5.604,5.6041,0,0,0,5.5664,5.5759,5.5777,5.5659,5.5682,5.5814,5.5749,5.5908,5.5923,5.5992,5.6036,5.6043,5.6036,5.6041,5.6043,5.6439,5.6442,0,0,5.5657,5.569,5.5767,5.5788,5.5769,5.5745,5.5753,5.5916,5.5966,5.6037,5.6047,5.6039,5.6043,5.6045,5.6437,5.644,0,0,0,5.5645,5.5686,5.5699,5.5781,5.5802,5.5749,5.5759,5.5959,5.5961,5.6049,5.6041,5.6044,5.6047,5.6434,5.6438,5.6594,0,0,0,5.564,5.5679,5.5697,5.5719,5.58,5.5882,5.5799,5.5949,5.5967,5.604,5.6044,5.605,5.6431,5.6436,5.6584,5.6662,0,0,0,5.5639,5.5678,5.5705,5.572,5.578,5.5879,5.5889,5.5952,5.5963,5.6041,5.605,5.6429,5.6435,5.6574,5.6647,5.6775,0,0,0,5.5649,5.5844,5.5708,5.5923,5.5779,5.5975,5.5888,5.6033,5.6118,5.6046,5.6431,5.6438,5.6572,5.6638,5.6765,5.6887,5.6941,0,0,5.5913,5.5877,5.6,5.5883,5.6111,5.5951,5.6203,5.625,5.6228,5.637,5.6379,5.6587,5.6646,5.6773,5.7238,5.7281,0,0,0,5.6096,5.6185,5.6238,5.632,5.636,5.6401,5.6406,5.6423,5.6542,5.6308,5.6668,5.6702,5.6775,5.6831,5.6868,5.6928,5.6466,5.6465,5.6464,5.6519,5.6478,5.6679,5.6654,5.6736,5.6738,5.68,5.6823,5.6761,5.6846,5.6888,5.7175,5.7242,5.727,5.7332,5.695,5.6951,5.6951,5.6952,5.6901,5.702,5.693,5.7092,5.7048,5.7185,5.7195,5.7145,5.7265,5.714,5.7203,5.7068,5.7319,5.7371,5.6963,5.6961,5.696,5.6959,5.6958,5.7172,5.7222,5.7239,5.7352,5.7445,5.7413,5.7532,5.7489,5.7449,5.7511,5.7548,5.7545,5.7536,5.7532,5.7533,5.7534,5.7535,5.7535,5.7536,5.7446,5.746,5.7565,5.7623,5.7669,5.7724,5.7728,5.7773,5.7811,5.7769,5.7769,5.7697,5.7351,5.7264,5.7551,5.7549,5.7547,5.7545,5.7544,5.7846,5.7748,5.7911,5.7957,5.802,5.8114,5.8056,5.8151,5.8181,5.8241,5.8155,5.7907,5.7867,5.7837,5.7765,5.8164,5.8164,5.8164,5.8164,5.8073,5.8048,5.8203,5.828,5.835,5.8314,5.8498,5.8503,5.8493,5.8509,5.8445,5.8346,5.8318,5.8294,5.8254,5.8186,5.8684,5.8684,5.8685,5.8316,5.8296,5.8461,5.8448,5.8494,5.8535,5.8706,5.8798,5.8766,5.8705,5.852,5.8498,5.8337,5.8288,5.8221,5.8161,5.8034,0,0]},{"header":{"parameterUnit":"m.s-1","parameterCategory":1,"la1":30.2992,"la2":30.254,"lo1":-89.0895,"lo2":-89.0443,"dy":0.0025,"dx":0.0025,"nx":19,"ny":19,"refTime":"2026-04-17T09:00:00:Z","depth":0,"parameterNumber":3,"parameterNumberName":"V-component_of_WINDS"},"data":[0,0,0,1.5632,1.5641,1.6113,1.6115,1.6684,1.6689,0,0,0,0,0,0,0,0,0,0,0,1.5471,1.5474,1.5631,1.5642,1.6113,1.6115,1.6683,1.6689,0,0,0,0,0,0,0,0,0,0,0,1.5469,1.5473,1.5477,1.5644,1.6112,1.6115,1.6682,1.6339,0,0,0,0,0,0,0,0,0,0,1.5887,1.5717,1.5472,1.5477,1.5647,1.6112,1.6115,1.6323,1.636,1.6456,0,1.6533,0,1.6619,1.6724,1.6726,0,0,0,1.566,1.5686,1.5832,1.5477,1.5651,1.6111,1.5905,1.6344,1.6386,1.6505,1.6541,1.6563,1.6629,1.6728,1.6731,1.7216,1.7217,0,0,1.5633,1.5544,1.5802,1.5858,1.5781,1.589,1.592,1.637,1.6405,1.6544,1.6577,1.6638,1.6731,1.6736,1.7215,1.7216,0,0,0,1.5547,1.5525,1.5662,1.5833,1.592,1.5903,1.5937,1.6385,1.6437,1.6584,1.6645,1.6735,1.6741,1.7213,1.7215,1.7199,0,0,0,1.5532,1.5475,1.5649,1.5599,1.5911,1.6159,1.5941,1.6406,1.6459,1.6642,1.6735,1.6746,1.7212,1.7214,1.7197,1.7208,0,0,0,1.5447,1.5466,1.5526,1.5594,1.5793,1.6153,1.6232,1.6419,1.6496,1.6727,1.6748,1.7211,1.7214,1.7194,1.7204,1.7308,0,0,0,1.5332,1.5508,1.5524,1.5744,1.5788,1.6139,1.623,1.6497,1.6692,1.6737,1.7212,1.7215,1.7193,1.7202,1.7305,1.738,1.7403,0,0,1.5505,1.5526,1.5662,1.569,1.6014,1.6074,1.6398,1.6664,1.6769,1.7061,1.7074,1.7197,1.7204,1.7308,1.756,1.7577,0,0,0,1.5687,1.5783,1.5889,1.6069,1.6274,1.645,1.6675,1.6773,1.7024,1.69,1.7266,1.7273,1.7337,1.7378,1.7392,1.7453,1.7229,1.7229,1.7229,1.5805,1.5926,1.616,1.6336,1.651,1.6738,1.6891,1.7062,1.7137,1.722,1.7309,1.7447,1.749,1.7502,1.7564,1.7358,1.7358,1.7358,1.7358,1.6069,1.6225,1.6315,1.6574,1.6701,1.6921,1.7146,1.719,1.7414,1.7391,1.7455,1.742,1.7517,1.7578,1.7358,1.7358,1.7358,1.7358,1.7358,1.6161,1.6256,1.637,1.664,1.6836,1.701,1.7218,1.7328,1.7433,1.7495,1.7599,1.76,1.7614,1.7536,1.7537,1.7537,1.7538,1.7538,1.7539,1.6211,1.6339,1.6501,1.6728,1.6857,1.704,1.7268,1.7398,1.7571,1.7634,1.7636,1.77,1.7503,1.7451,1.7547,1.7545,1.7544,1.7543,1.7543,1.6435,1.64,1.6649,1.6777,1.7053,1.7238,1.7374,1.7629,1.7753,1.7852,1.7903,1.7739,1.7769,1.7759,1.7717,1.7876,1.7876,1.7876,1.7876,1.6512,1.6536,1.6814,1.7011,1.7217,1.7363,1.764,1.7818,1.7997,1.8081,1.8073,1.8026,1.801,1.8051,1.8034,1.7996,1.8223,1.8223,1.8223,1.6656,1.6704,1.6919,1.709,1.7313,1.7502,1.7766,1.799,1.8186,1.824,1.8148,1.8134,1.8059,1.8029,1.8082,1.8053,1.7987,0,0]}]]